User: anonymous   Login
Location: Unspecified
(0.0000°N, 0.0000°E)
Time: 14:18:06
(UTC+00:00)
Language:

CUBEBUG 2 - Orbit

View from above orbital plane
View from above orbital plane
View from above satellite
View from above satellite

Ground track
Ground track

The orbit data is extracted from the following two-line orbital elements,

1 39440U 13066AA  22183.83381196  .00000839  00000-0  11984-3 0  9997
2 39440  97.7268 140.7442 0080352  81.6876 279.3436 14.77039290462555
Epoch (UTC): 02 July 2022 20:00:41
Eccentricity: 0.0080352
inclination: 97.7268°
perigee height: 582 km
apogee height: 695 km
right ascension of ascending node: 140.7442°
argument of perigee: 81.6876°
revolutions per day: 14.77039290
mean anomaly at epoch: 279.3436°
orbit number at epoch: 46255

The dashed part of the orbit path shows where the satellite is in the earth's shadow,  

DLR